STARLINK-31573, 59334

Orbit data source: Space-Track

STARLINK-31573, 59334 is a payload satellite owned by SpaceX/Seattle (US) in LEO that was launched on Mon, 25 Mar 2024 UTC via an FALCON 9 launch vehicle from the Air Force Eastern Test Range (AFETR). Payload-class satellites include a variety of spacecraft equipped with specific instruments for various scientific and technological missions. These include communications satellites like Starlink; space stations such as the ISS; scientific satellites like the Hubble; Earth observation satellites from companies like Planet Labs, Umbra, and HawkEye 360; GPS; miniature CubeSats for education and research; and military/defense satellites.

Loading next visibility...
Identifier
59334, 2024-057Q
Orbit
LEO
Country
Flag of USUS
Related business
Manufacturer
SpaceX/Seattle
Mission
Operational Commercial Communications
Bus & Motor
STARLINK V2M, Unknown motor
Mass
730 kg wet, ~700 kg dry
Launch date (UTC)
2024-03-25 (2 years ago)
Launch vehicle
FALCON 9
Launch site
Air Force Eastern Test Range (AFETR)
Object type
Payload
Rocket body
Debris
Shape & HBR
Box + 2 Pan, 17.7 m
Radar Cross Section
33.884 m², Large (>1 m²)

Expand to show TLE details & history
Last TLE update: 2 days ago

TLE from 2 days ago
0 STARLINK-31573
1 59334U 24057Q   26171.47497404 -.00000723  00000-0 -16774-4 0  9991
2 59334  43.0019 326.1715 0001016 270.7978  89.2757 15.27570828125568
Epoch: 2026-06-20T11:23Z
TLE epoch observation values (Epoch: 2026-06-20T11:23:57.757Z)
Latitude
-0.00002°
Longitude
-113.50824°
Altitude
482.843 km
Speed
7.626 km/s
True Right ascension
21h 44m 41s
True Declination
0° 00' 00"
Sunlit
Object was in full shadow at epoch
Visualization orbit readout
Latitude
Unknown
Longitude
Unknown
Altitude
Unknown
Speed
Unknown
Apparent Right ascension
Unknown
Apparent Declination
Unknown
Sunlit
N/A
Visualization observer readout
Local Sidereal Time
21:26:14
Azimuth
Unknown
Elevation
Unknown
Doppler factor
Unknown
Orbital elements
Apogee altitude
485.719 km
Perigee altitude
484.324 km
Semi-major axis
6,863.158 km
Eccentricity
0.0001
Inclination
43.0019°
RAAN
326.1715°
Arg. of periapsis
270.7978°
True anomaly
89.28734°
Mean anomaly
89.2757°
Eccentric anomaly
89.28152°
Mean motion
3.81731 °/min
Orbital period
94.31 mins
BSTAR
-0.000016774
Loading maneuver chart data...
Computing Atmospheric mass density...
Loading historical data...
Loading historical data...
Loading historical data...
Loading historical data...
Loading historical data...
Loading historical data...
Loading historical data...

Documentation

Showing up to 5 results
|